Regional Weather Roundup
Issued by NWS Sioux Falls, SD

Home | Current Version | Previous Version | Text Only | Print | Product List | Glossary On
Versions: 1 2 3 4 5 6 7 8 9 10 11 12 13 14 15 16 17 18 19 20 21 22 23 24 25 26 27 28 29 30 31 32 33 34 35 36 37 38 39 40 41 42 43 44 45 46 47 48 49 50
000
ASUS43 KFSD 190910
RWRFSD

WEATHER ROUNDUP FOR SE SOUTH DAKOTA/SW MINNESOTA/NW IOWA
NATIONAL WEATHER SERVICE SIOUX FALLS SD
300 AM CST TUE NOV 19 2019

NOTE: "FAIR" INDICATES FEW OR NO CLOUDS BELOW 12,000 FEET WITH NO
SIGNIFICANT WEATHER AND OR OBSTRUCTIONS TO VISIBILITY.


SDZ038>040-050-052>070-191000-
SOUTHEAST SOUTH DAKOTA

CITY           SKY/WX    TMP DP  RH WIND       PRES   REMARKS
BROOKINGS      CLEAR     32  32 100 NW6       29.75R WCI  26
CHAMBERLAIN    PTCLDY    38  37  99 W10       29.83R
HURON          CLEAR     33  30  88 NW10      29.79R WCI  25
MADISON        FAIR      34  34 100 NW13      29.76R WCI  25
MITCHELL       FAIR      38  31  76 W10       29.81R
SIOUX FALLS    CLEAR     37  31  78 W10       29.76R
WINNER         FAIR      38  30  73 W7        29.84R
YANKTON        CLEAR     38  34  85 W8        29.80R
$$

MNZ071-072-080-081-089-090-097-098-191000-
SOUTHWEST MINNESOTA

CITY           SKY/WX    TMP DP  RH WIND       PRES   REMARKS
FAIRMONT       PTCLDY    37  36  96 W7        29.71R
JACKSON        PTCLDY    36  34  93 W9        29.72S
LUVERNE        CLEAR     32  32 100 W9        29.75S WCI  24
MARSHALL       CLEAR     38  33  82 W14       29.71R
MONTEVIDEO     CLEAR     36  30  80 N7        29.70R
PIPESTONE      CLEAR     36  36 100 NW8       29.73S
REDWOOD FALLS  CLEAR     36  34  92 W9        29.68S
TRACY          CLEAR     39  34  81 W7        29.70S
WINDOM         CLEAR     36  34  93 CALM      29.70S
WORTHINGTON    CLEAR     35  34  96 W13       29.73R WCI  26
$$

IAZ001>003-012>014-020>022-031-032-NEZ013-014-SDZ071-191000-
NORTHWEST IOWA

CITY           SKY/WX    TMP DP  RH WIND       PRES   REMARKS
CHEROKEE       CLEAR     34  34 100 CALM      29.76S
DENISON        CLEAR     37  37 100 SW3       29.78F
ESTHERVILLE    CLEAR     34  33  96 W10       29.71S WCI  26
LE MARS        CLEAR     36  36 100 CALM      29.77R
MAURICE        FAIR      36  36 100 W10       29.76R
SHELDON        CLEAR     32  32 100 W6        29.73S FOG     WCI  26
SIOUX CITY     CLEAR     33  32  96 W3        29.79R
SPENCER        FOG       34  32  92 NW6       29.74R VSB 1/4 WCI  29
STORM LAKE     FOG       36  36 100 W10       29.72S VSB<1/4
$$

ABBREVIATIONS USED IN REMARKS
   TC - TEMPERATURE IN CELSIUS
  WCI - WIND CHILL INDEX
   HX - HEAT INDEX
  VSB - VISIBILITY




USA.gov is the U.S. government's official web portal to all federal, state and local government web resources and services.